Time,TemperatureF,DewpointF,PressureIn,WindDirection,WindDirectionDegrees,WindSpeedMPH,WindSpeedGustMPH,Humidity,HourlyPrecipIn,Conditions,Clouds,dailyrainin,SoftwareType,DateUTC
2013-04-21 00:57:00,37.9,27.3,29.57,SE,135,5.8,5.8,65,0.00,,,0.00,WUHU21623XXSP,2013-04-21 05:57:00,
2013-04-21 01:57:00,37.6,27.3,29.57,SE,135,6.5,6.5,66,0.00,,,0.00,WUHU21623XXSP,2013-04-21 06:57:00,
2013-04-21 02:57:00,37.9,28.0,29.56,SE,135,6.7,6.7,67,0.00,,,0.00,WUHU21623XXSP,2013-04-21 07:57:00,
2013-04-21 03:57:00,37.6,28.4,29.55,SE,135,6.3,6.3,69,0.00,,,0.00,WUHU21623XXSP,2013-04-21 08:57:00,
2013-04-21 04:57:00,38.3,29.1,29.56,SSE,158,5.1,5.1,69,0.00,,,0.00,WUHU21623XXSP,2013-04-21 09:57:00,
2013-04-21 05:57:00,38.5,29.3,29.58,SE,135,13.0,13.0,69,0.00,,,0.00,WUHU21623XXSP,2013-04-21 10:57:00,
2013-04-21 06:57:00,39.0,29.4,29.60,SE,135,4.9,4.9,68,0.00,,,0.00,WUHU21623XXSP,2013-04-21 11:57:00,
2013-04-21 07:23:00,39.7,29.6,29.61,SE,135,8.3,8.3,67,0.00,,,0.00,WUHU21623XXSP,2013-04-21 12:23:00,
2013-04-21 07:28:00,39.9,29.8,29.61,SE,135,6.3,11.6,67,0.00,,,0.00,WUHU21623XXSP,2013-04-21 12:28:00,
2013-04-21 07:33:00,40.1,30.0,29.61,SE,135,7.4,14.3,67,0.00,,,0.00,WUHU21623XXSP,2013-04-21 12:33:00,
2013-04-21 07:38:00,40.6,30.1,29.61,SSE,157,12.1,14.3,66,0.00,,,0.00,WUHU21623XXSP,2013-04-21 12:38:00,
2013-04-21 07:43:00,40.8,30.3,29.61,ESE,112,10.3,12.1,66,0.00,,,0.00,WUHU21623XXSP,2013-04-21 12:43:00,
2013-04-21 07:48:00,40.8,30.3,29.61,SE,135,2.0,10.3,66,0.00,,,0.00,WUHU21623XXSP,2013-04-21 12:48:00,
2013-04-21 07:53:00,41.0,30.5,29.61,SE,135,8.1,8.1,66,0.00,,,0.00,WUHU21623XXSP,2013-04-21 12:53:00,
2013-04-21 07:58:00,41.0,30.1,29.61,SE,135,8.3,8.3,65,0.00,,,0.00,WUHU21623XXSP,2013-04-21 12:58:00,
2013-04-21 08:03:00,41.2,30.3,29.62,SE,135,8.5,8.5,65,0.00,,,0.00,WUHU21623XXSP,2013-04-21 13:03:00,
2013-04-21 08:08:00,41.2,30.3,29.61,SE,135,4.9,8.5,65,0.00,,,0.00,WUHU21623XXSP,2013-04-21 13:08:00,
2013-04-21 08:13:00,41.5,30.6,29.61,SSE,157,14.5,14.5,65,0.00,,,0.00,WUHU21623XXSP,2013-04-21 13:13:00,
2013-04-21 08:18:00,41.5,30.6,29.61,SE,135,7.6,14.5,65,0.00,,,0.00,WUHU21623XXSP,2013-04-21 13:18:00,
2013-04-21 08:23:00,41.5,30.6,29.62,SE,135,9.4,9.4,65,0.00,,,0.00,WUHU21623XXSP,2013-04-21 13:23:00,
2013-04-21 08:28:00,41.7,30.4,29.62,SSE,157,3.4,9.4,64,0.00,,,0.00,WUHU21623XXSP,2013-04-21 13:28:00,
2013-04-21 08:33:00,41.9,30.6,29.62,SE,135,11.2,11.2,64,0.00,,,0.00,WUHU21623XXSP,2013-04-21 13:33:00,
2013-04-21 08:38:00,42.4,31.1,29.62,SE,135,8.3,11.2,64,0.00,,,0.00,WUHU21623XXSP,2013-04-21 13:38:00,
2013-04-21 08:43:00,42.8,31.2,29.61,SE,135,10.1,11.2,63,0.00,,,0.00,WUHU21623XXSP,2013-04-21 13:43:00,
2013-04-21 08:48:00,43.0,31.2,29.61,ESE,112,2.5,10.1,63,0.00,,,0.00,WUHU21623XXSP,2013-04-21 13:48:00,
2013-04-21 08:53:00,43.5,31.6,29.62,SSE,157,11.0,11.0,63,0.00,,,0.00,WUHU21623XXSP,2013-04-21 13:53:00,
2013-04-21 08:58:00,44.4,32.2,29.61,SSE,157,8.7,11.0,62,0.00,,,0.00,WUHU21623XXSP,2013-04-21 13:58:00,
2013-04-21 09:03:00,44.8,32.6,29.61,ESE,112,5.4,11.0,62,0.00,,,0.00,WUHU21623XXSP,2013-04-21 14:03:00,
2013-04-21 09:08:00,45.0,32.3,29.62,SE,135,7.6,11.6,61,0.00,,,0.00,WUHU21623XXSP,2013-04-21 14:08:00,
2013-04-21 09:13:00,45.3,32.7,29.61,ESE,112,11.0,11.6,61,0.00,,,0.00,WUHU21623XXSP,2013-04-21 14:13:00,
2013-04-21 09:18:00,45.5,32.8,29.61,SSE,157,6.5,11.0,61,0.00,,,0.00,WUHU21623XXSP,2013-04-21 14:18:00,
2013-04-21 09:23:00,45.5,32.5,29.61,SSE,157,5.6,7.8,60,0.00,,,0.00,WUHU21623XXSP,2013-04-21 14:23:00,
2013-04-21 09:28:00,45.7,32.6,29.61,SE,135,9.2,9.2,60,0.00,,,0.00,WUHU21623XXSP,2013-04-21 14:28:00,
2013-04-21 09:33:00,46.0,32.5,29.61,SE,135,6.5,10.5,59,0.00,,,0.00,WUHU21623XXSP,2013-04-21 14:33:00,
2013-04-21 09:38:00,46.2,33.1,29.60,SSE,157,5.8,10.5,60,0.00,,,0.00,WUHU21623XXSP,2013-04-21 14:38:00,
2013-04-21 09:43:00,47.1,33.5,29.60,SSE,157,11.9,15.7,59,0.00,,,0.00,WUHU21623XXSP,2013-04-21 14:43:00,
2013-04-21 09:48:00,47.8,34.2,29.61,SE,135,11.0,15.7,59,0.00,,,0.00,WUHU21623XXSP,2013-04-21 14:48:00,
2013-04-21 09:53:00,48.0,33.9,29.61,SSE,157,8.3,11.0,58,0.00,,,0.00,WUHU21623XXSP,2013-04-21 14:53:00,
2013-04-21 09:58:00,49.1,35.0,29.61,SE,135,22.6,22.6,58,0.00,,,0.00,WUHU21623XXSP,2013-04-21 14:58:00,
2013-04-21 10:03:00,49.6,35.0,29.61,SSE,157,7.2,22.6,57,0.00,,,0.00,WUHU21623XXSP,2013-04-21 15:03:00,
2013-04-21 10:08:00,49.6,34.5,29.61,SE,135,12.5,12.5,55,0.00,,,0.00,WUHU21623XXSP,2013-04-21 15:08:00,
2013-04-21 10:13:00,49.8,34.3,29.60,South,180,19.5,19.5,55,0.00,,,0.00,WUHU21623XXSP,2013-04-21 15:13:00,
2013-04-21 10:18:00,50.2,34.6,29.60,SSE,157,0.0,19.5,55,0.00,,,0.00,WUHU21623XXSP,2013-04-21 15:18:00,
2013-04-21 10:23:00,50.2,34.6,29.60,SE,135,5.4,12.3,55,0.00,,,0.00,WUHU21623XXSP,2013-04-21 15:23:00,
2013-04-21 10:28:00,49.8,34.3,29.60,SE,135,4.7,7.8,55,0.00,,,0.00,WUHU21623XXSP,2013-04-21 15:28:00,
2013-04-21 10:33:00,50.2,34.6,29.60,SSE,157,7.4,7.8,55,0.00,,,0.00,WUHU21623XXSP,2013-04-21 15:33:00,
2013-04-21 10:38:00,50.7,35.1,29.60,South,180,13.6,13.6,55,0.00,,,0.00,WUHU21623XXSP,2013-04-21 15:38:00,
2013-04-21 10:43:00,50.9,35.1,29.60,ESE,112,11.6,13.6,54,0.00,,,0.00,WUHU21623XXSP,2013-04-21 15:43:00,
2013-04-21 10:48:00,51.4,35.7,29.60,SE,135,8.9,11.6,55,0.00,,,0.00,WUHU21623XXSP,2013-04-21 15:48:00,
2013-04-21 10:53:00,51.4,35.7,29.59,ESE,112,15.4,15.4,55,0.00,,,0.00,WUHU21623XXSP,2013-04-21 15:53:00,
2013-04-21 10:58:00,51.6,35.4,29.59,SE,135,12.3,15.4,54,0.00,,,0.00,WUHU21623XXSP,2013-04-21 15:58:00,
2013-04-21 11:03:00,52.2,35.9,29.59,SE,135,13.6,14.5,54,0.00,,,0.00,WUHU21623XXSP,2013-04-21 16:03:00,
2013-04-21 11:08:00,52.3,36.1,29.59,SE,135,6.9,13.6,54,0.00,,,0.00,WUHU21623XXSP,2013-04-21 16:08:00,
2013-04-21 11:13:00,52.5,35.8,29.59,SSE,157,3.6,8.3,53,0.00,,,0.00,WUHU21623XXSP,2013-04-21 16:13:00,
2013-04-21 11:18:00,52.3,35.6,29.59,SSE,157,4.7,8.3,53,0.00,,,0.00,WUHU21623XXSP,2013-04-21 16:18:00,
2013-04-21 11:23:00,52.5,35.8,29.59,SSE,157,3.6,7.6,53,0.00,,,0.00,WUHU21623XXSP,2013-04-21 16:23:00,
2013-04-21 11:28:00,53.1,36.8,29.59,SE,135,9.8,9.8,54,0.00,,,0.00,WUHU21623XXSP,2013-04-21 16:28:00,
2013-04-21 11:33:00,54.1,37.3,29.58,South,180,3.8,12.5,53,0.00,,,0.00,WUHU21623XXSP,2013-04-21 16:33:00,
2013-04-21 11:38:00,54.5,37.6,29.58,SSE,157,12.8,12.8,53,0.00,,,0.00,WUHU21623XXSP,2013-04-21 16:38:00,
2013-04-21 11:43:00,55.0,37.7,29.58,SE,135,14.3,14.3,52,0.00,,,0.00,WUHU21623XXSP,2013-04-21 16:43:00,
2013-04-21 11:48:00,55.2,37.8,29.57,SE,135,17.4,21.0,52,0.00,,,0.00,WUHU21623XXSP,2013-04-21 16:48:00,
2013-04-21 11:53:00,55.2,37.3,29.58,SSW,202,1.6,21.0,51,0.00,,,0.00,WUHU21623XXSP,2013-04-21 16:53:00,
2013-04-21 11:58:00,55.6,38.6,29.57,SE,135,12.8,17.7,53,0.00,,,0.00,WUHU21623XXSP,2013-04-21 16:58:00,
2013-04-21 12:03:00,56.1,38.7,29.57,SSE,157,9.4,12.8,52,0.00,,,0.00,WUHU21623XXSP,2013-04-21 17:03:00,
2013-04-21 12:08:00,56.8,39.4,29.56,SSW,202,6.9,11.2,52,0.00,,,0.00,WUHU21623XXSP,2013-04-21 17:08:00,
2013-04-21 12:13:00,57.0,39.6,29.56,SE,135,10.3,10.3,52,0.00,,,0.00,WUHU21623XXSP,2013-04-21 17:13:00,
2013-04-21 12:18:00,57.7,39.8,29.56,SSE,157,15.0,15.0,51,0.00,,,0.00,WUHU21623XXSP,2013-04-21 17:18:00,
2013-04-21 12:23:00,57.7,39.8,29.56,SE,135,8.1,15.0,51,0.00,,,0.00,WUHU21623XXSP,2013-04-21 17:23:00,
2013-04-21 12:28:00,57.6,39.6,29.56,SSE,157,15.7,15.7,51,0.00,,,0.00,WUHU21623XXSP,2013-04-21 17:28:00,
2013-04-21 12:33:00,56.8,38.9,29.56,SSE,157,7.6,15.7,51,0.00,,,0.00,WUHU21623XXSP,2013-04-21 17:33:00,
2013-04-21 12:38:00,56.5,38.1,29.56,ESE,112,13.6,13.6,50,0.00,,,0.00,WUHU21623XXSP,2013-04-21 17:38:00,
2013-04-21 12:43:00,56.1,38.2,29.55,South,180,7.4,13.6,51,0.00,,,0.00,WUHU21623XXSP,2013-04-21 17:43:00,
2013-04-21 12:48:00,57.2,39.4,29.54,South,180,16.8,16.8,52,0.00,,,0.00,WUHU21623XXSP,2013-04-21 17:48:00,
2013-04-21 12:53:00,57.9,40.0,29.54,SW,225,3.6,16.8,51,0.00,,,0.00,WUHU21623XXSP,2013-04-21 17:53:00,
2013-04-21 12:58:00,58.8,40.8,29.54,SSE,157,15.0,15.0,51,0.00,,,0.00,WUHU21623XXSP,2013-04-21 17:58:00,
2013-04-21 13:03:00,59.2,40.6,29.53,SSE,157,16.3,16.3,50,0.00,,,0.00,WUHU21623XXSP,2013-04-21 18:03:00,
2013-04-21 13:08:00,59.5,40.9,29.53,SE,135,7.2,16.3,50,0.00,,,0.00,WUHU21623XXSP,2013-04-21 18:08:00,
2013-04-21 13:13:00,60.1,41.4,29.53,South,180,12.3,12.3,50,0.00,,,0.00,WUHU21623XXSP,2013-04-21 18:13:00,
2013-04-21 13:18:00,60.6,41.9,29.54,SSE,157,12.1,12.3,50,0.00,,,0.00,WUHU21623XXSP,2013-04-21 18:18:00,
2013-04-21 13:22:00,60.8,41.5,29.54,SSW,202,2.9,12.1,49,0.00,,,0.00,WUHU21623XXSP,2013-04-21 18:22:00,
2013-04-21 13:27:00,61.3,42.0,29.54,SSW,202,6.9,9.2,49,0.00,,,0.00,WUHU21623XXSP,2013-04-21 18:27:00,
2013-04-21 13:32:00,61.9,41.9,29.54,SE,135,23.3,23.3,48,0.00,,,0.00,WUHU21623XXSP,2013-04-21 18:32:00,
2013-04-21 13:38:00,62.1,42.1,29.54,SSE,157,7.2,23.3,48,0.00,,,0.00,WUHU21623XXSP,2013-04-21 18:38:00,
2013-04-21 13:42:00,62.1,42.1,29.53,South,180,11.4,17.7,48,0.00,,,0.00,WUHU21623XXSP,2013-04-21 18:42:00,
2013-04-21 13:47:00,62.2,42.2,29.53,South,180,12.8,12.8,48,0.00,,,0.00,WUHU21623XXSP,2013-04-21 18:47:00,
2013-04-21 13:52:00,62.4,42.2,29.53,SE,135,13.4,13.4,48,0.00,,,0.00,WUHU21623XXSP,2013-04-21 18:52:00,
2013-04-21 13:57:00,62.2,42.4,29.52,SE,135,20.8,20.8,47,0.00,,,0.00,WUHU21623XXSP,2013-04-21 18:57:00,
2013-04-21 14:02:00,62.2,41.8,29.53,SE,135,20.8,20.8,47,0.00,,,0.00,WUHU21623XXSP,2013-04-21 19:02:00,
2013-04-21 14:07:00,62.2,42.2,29.52,SSE,157,14.1,20.8,48,0.00,,,0.00,WUHU21623XXSP,2013-04-21 19:07:00,
2013-04-21 14:12:00,62.2,42.2,29.52,SE,135,15.2,15.2,48,0.00,,,0.00,WUHU21623XXSP,2013-04-21 19:12:00,
2013-04-21 14:17:00,62.4,42.4,29.51,SSE,157,10.1,15.2,48,0.00,,,0.00,WUHU21623XXSP,2013-04-21 19:17:00,
2013-04-21 14:22:00,62.8,43.3,29.52,SSE,157,6.3,15.2,49,0.00,,,0.00,WUHU21623XXSP,2013-04-21 19:22:00,
2013-04-21 14:27:00,63.1,43.6,29.51,SSE,157,3.6,8.5,49,0.00,,,0.00,WUHU21623XXSP,2013-04-21 19:27:00,
2013-04-21 14:32:00,63.3,43.6,29.51,SSE,157,16.3,16.3,49,0.00,,,0.00,WUHU21623XXSP,2013-04-21 19:32:00,
2013-04-21 14:37:00,63.7,43.5,29.51,South,180,9.2,16.3,48,0.00,,,0.00,WUHU21623XXSP,2013-04-21 19:37:00,
2013-04-21 14:42:00,63.7,43.5,29.51,South,180,9.2,16.3,48,0.00,,,0.00,WUHU21623XXSP,2013-04-21 19:42:00,
2013-04-21 14:47:00,63.7,43.5,29.51,South,180,9.2,9.2,48,0.00,,,0.00,WUHU21623XXSP,2013-04-21 19:47:00,
2013-04-21 14:52:00,63.3,43.2,29.50,South,180,9.2,9.2,48,0.00,,,0.00,WUHU21623XXSP,2013-04-21 19:52:00,
2013-04-21 14:57:00,63.3,43.2,29.50,ESE,112,11.0,11.0,48,0.00,,,0.00,WUHU21623XXSP,2013-04-21 19:57:00,
2013-04-21 15:02:00,63.5,43.4,29.50,SE,135,12.3,12.3,48,0.00,,,0.00,WUHU21623XXSP,2013-04-21 20:02:00,
2013-04-21 15:07:00,64.0,43.8,29.49,SSE,157,5.4,12.3,48,0.00,,,0.00,WUHU21623XXSP,2013-04-21 20:07:00,
2013-04-21 15:12:00,64.0,43.8,29.49,SSE,157,10.7,12.3,48,0.00,,,0.00,WUHU21623XXSP,2013-04-21 20:12:00,
2013-04-21 15:17:00,64.2,44.0,29.49,SSE,157,12.5,12.5,48,0.00,,,0.00,WUHU21623XXSP,2013-04-21 20:17:00,
2013-04-21 15:22:00,64.2,43.4,29.49,SSE,157,3.8,13.2,47,0.00,,,0.00,WUHU21623XXSP,2013-04-21 20:22:00,
2013-04-21 15:27:00,64.0,43.8,29.48,SSE,157,8.3,13.2,48,0.00,,,0.00,WUHU21623XXSP,2013-04-21 20:27:00,
2013-04-21 15:32:00,64.2,43.4,29.48,SSE,157,14.3,14.3,47,0.00,,,0.00,WUHU21623XXSP,2013-04-21 20:32:00,
2013-04-21 15:37:00,64.6,44.3,29.48,ESE,112,16.6,16.6,48,0.00,,,0.00,WUHU21623XXSP,2013-04-21 20:37:00,
2013-04-21 15:42:00,64.6,43.8,29.48,SSE,157,12.1,16.6,47,0.00,,,0.00,WUHU21623XXSP,2013-04-21 20:42:00,
2013-04-21 15:47:00,64.6,43.8,29.48,ESE,112,2.0,12.1,47,0.00,,,0.00,WUHU21623XXSP,2013-04-21 20:47:00,
2013-04-21 15:52:00,64.6,43.8,29.47,SSE,157,6.7,6.7,47,0.00,,,0.00,WUHU21623XXSP,2013-04-21 20:52:00,
2013-04-21 15:57:00,64.6,43.8,29.47,SSE,157,7.6,7.6,47,0.00,,,0.00,WUHU21623XXSP,2013-04-21 20:57:00,
2013-04-21 16:02:00,64.2,43.4,29.46,SE,135,6.3,7.6,47,0.00,,,0.00,WUHU21623XXSP,2013-04-21 21:02:00,
2013-04-21 16:07:00,64.2,43.4,29.47,SW,225,6.0,7.6,47,0.00,,,0.00,WUHU21623XXSP,2013-04-21 21:07:00,
2013-04-21 16:12:00,64.0,43.3,29.47,SW,225,6.0,6.0,47,0.00,,,0.00,WUHU21623XXSP,2013-04-21 21:12:00,
2013-04-21 16:17:00,64.0,43.3,29.47,SSE,157,5.4,14.3,47,0.00,,,0.00,WUHU21623XXSP,2013-04-21 21:17:00,
2013-04-21 16:22:00,64.0,43.3,29.46,SE,135,12.5,14.3,47,0.00,,,0.00,WUHU21623XXSP,2013-04-21 21:22:00,
2013-04-21 16:27:00,64.0,43.3,29.46,SE,135,12.5,12.5,47,0.00,,,0.00,WUHU21623XXSP,2013-04-21 21:27:00,
2013-04-21 16:32:00,64.2,43.3,29.46,SSE,157,4.3,12.5,47,0.00,,,0.00,WUHU21623XXSP,2013-04-21 21:32:00,
2013-04-21 16:37:00,64.2,44.0,29.46,SSE,157,6.3,10.1,48,0.00,,,0.00,WUHU21623XXSP,2013-04-21 21:37:00,
2013-04-21 16:42:00,64.2,44.0,29.46,SE,135,8.9,10.1,48,0.00,,,0.00,WUHU21623XXSP,2013-04-21 21:42:00,
2013-04-21 16:47:00,64.4,44.2,29.46,SE,135,6.3,10.1,48,0.00,,,0.00,WUHU21623XXSP,2013-04-21 21:47:00,
2013-04-21 16:52:00,64.4,43.6,29.46,SE,135,0.0,11.9,47,0.00,,,0.00,WUHU21623XXSP,2013-04-21 21:52:00,
2013-04-21 16:57:00,64.2,43.4,29.46,SE,135,9.6,11.9,47,0.00,,,0.00,WUHU21623XXSP,2013-04-21 21:57:00,
2013-04-21 17:02:00,64.2,43.4,29.46,SSE,157,7.6,9.6,47,0.00,,,0.00,WUHU21623XXSP,2013-04-21 22:02:00,
2013-04-21 17:07:00,64.2,44.0,29.46,SSE,157,11.2,11.2,48,0.00,,,0.00,WUHU21623XXSP,2013-04-21 22:07:00,
2013-04-21 17:12:00,64.6,43.8,29.46,South,180,6.9,11.2,47,0.00,,,0.00,WUHU21623XXSP,2013-04-21 22:12:00,
2013-04-21 17:17:00,64.4,44.2,29.46,SE,135,4.9,7.2,48,0.00,,,0.00,WUHU21623XXSP,2013-04-21 22:17:00,
2013-04-21 17:22:00,64.2,43.4,29.46,SSW,202,3.1,6.9,47,0.00,,,0.00,WUHU21623XXSP,2013-04-21 22:22:00,
2013-04-21 17:27:00,64.2,44.0,29.46,SE,135,7.8,7.8,48,0.00,,,0.00,WUHU21623XXSP,2013-04-21 22:27:00,
2013-04-21 17:32:00,64.0,44.0,29.46,SSE,157,6.7,7.8,47,0.00,,,0.00,WUHU21623XXSP,2013-04-21 22:32:00,
2013-04-21 17:37:00,63.7,43.5,29.45,SE,135,8.3,8.3,48,0.00,,,0.00,WUHU21623XXSP,2013-04-21 22:37:00,
2013-04-21 17:42:00,63.3,43.4,29.45,SE,135,10.1,10.1,48,0.00,,,0.00,WUHU21623XXSP,2013-04-21 22:42:00,
2013-04-21 17:47:00,63.1,43.2,29.45,SSE,157,6.3,10.1,48,0.00,,,0.00,WUHU21623XXSP,2013-04-21 22:47:00,
2013-04-21 17:52:00,63.1,43.0,29.45,SE,135,5.4,12.8,48,0.00,,,0.00,WUHU21623XXSP,2013-04-21 22:52:00,
2013-04-21 17:57:00,63.1,43.0,29.46,SE,135,2.5,12.8,48,0.00,,,0.00,WUHU21623XXSP,2013-04-21 22:57:00,
2013-04-21 18:02:00,63.1,43.0,29.45,SSE,157,8.9,12.1,48,0.00,,,0.00,WUHU21623XXSP,2013-04-21 23:02:00,
2013-04-21 18:07:00,63.0,43.4,29.45,SSE,157,9.4,13.2,49,0.00,,,0.00,WUHU21623XXSP,2013-04-21 23:07:00,
2013-04-21 18:12:00,62.8,42.7,29.45,SE,135,5.6,13.2,48,0.00,,,0.00,WUHU21623XXSP,2013-04-21 23:12:00,
2013-04-21 18:17:00,62.6,42.5,29.44,South,180,6.9,13.4,48,0.00,,,0.00,WUHU21623XXSP,2013-04-21 23:17:00,
2013-04-21 18:22:00,62.2,42.2,29.44,SE,135,6.9,13.4,48,0.00,,,0.00,WUHU21623XXSP,2013-04-21 23:22:00,
2013-04-21 18:27:00,61.9,42.5,29.44,SSE,157,8.3,10.5,49,0.00,,,0.00,WUHU21623XXSP,2013-04-21 23:27:00,
2013-04-21 18:32:00,61.7,42.3,29.44,SE,135,8.7,11.6,49,0.00,,,0.00,WUHU21623XXSP,2013-04-21 23:32:00,
2013-04-21 18:37:00,61.5,42.7,29.44,SSE,157,7.4,11.6,50,0.00,,,0.00,WUHU21623XXSP,2013-04-21 23:37:00,
2013-04-21 18:42:00,61.3,42.6,29.44,South,180,6.7,8.1,50,0.00,,,0.00,WUHU21623XXSP,2013-04-21 23:42:00,
2013-04-21 18:47:00,61.2,42.4,29.44,SSW,202,4.5,9.4,50,0.00,,,0.00,WUHU21623XXSP,2013-04-21 23:47:00,
2013-04-21 18:52:00,60.6,41.9,29.44,SSE,157,8.3,9.4,50,0.00,,,0.00,WUHU21623XXSP,2013-04-21 23:52:00,
2013-04-21 18:57:00,60.1,41.4,29.45,SSE,157,1.3,8.3,50,0.00,,,0.00,WUHU21623XXSP,2013-04-21 23:57:00,
2013-04-21 19:02:00,59.7,41.6,29.45,South,180,4.3,5.6,51,0.00,,,0.00,WUHU21623XXSP,2013-04-22 00:02:00,
2013-04-21 19:07:00,59.4,41.7,29.45,ESE,112,7.6,9.6,52,0.00,,,0.00,WUHU21623XXSP,2013-04-22 00:07:00,
2013-04-21 19:12:00,60.1,42.4,29.45,SSE,157,8.7,9.6,52,0.00,,,0.00,WUHU21623XXSP,2013-04-22 00:12:00,
2013-04-21 19:17:00,61.3,43.1,29.45,SE,135,2.7,8.7,51,0.00,,,0.00,WUHU21623XXSP,2013-04-22 00:17:00,
2013-04-21 19:22:00,60.6,42.4,29.45,SSE,157,0.7,6.3,51,0.00,,,0.00,WUHU21623XXSP,2013-04-22 00:22:00,
2013-04-21 19:27:00,59.5,41.9,29.45,South,180,0.0,7.8,52,0.00,,,0.00,WUHU21623XXSP,2013-04-22 00:27:00,
2013-04-21 19:32:00,58.8,41.2,29.45,SE,135,7.8,7.8,52,0.00,,,0.00,WUHU21623XXSP,2013-04-22 00:32:00,
2013-04-21 19:37:00,57.7,40.7,29.45,SSE,157,2.2,7.8,53,0.00,,,0.00,WUHU21623XXSP,2013-04-22 00:37:00,
2013-04-21 19:42:00,57.4,40.9,29.46,SSE,157,8.3,8.3,54,0.00,,,0.00,WUHU21623XXSP,2013-04-22 00:42:00,
2013-04-21 19:47:00,56.8,40.4,29.46,SSE,157,6.9,8.3,54,0.00,,,0.00,WUHU21623XXSP,2013-04-22 00:47:00,
2013-04-21 19:52:00,56.1,40.1,29.46,SSE,157,4.9,6.9,55,0.00,,,0.00,WUHU21623XXSP,2013-04-22 00:52:00,
2013-04-21 19:57:00,55.9,39.9,29.46,SE,135,6.9,6.9,55,0.00,,,0.00,WUHU21623XXSP,2013-04-22 00:57:00,
2013-04-21 20:02:00,55.6,40.0,29.46,South,180,7.6,7.6,56,0.00,,,0.00,WUHU21623XXSP,2013-04-22 01:02:00,
2013-04-21 20:07:00,55.2,39.7,29.46,SSE,157,6.9,7.6,56,0.00,,,0.00,WUHU21623XXSP,2013-04-22 01:07:00,
2013-04-21 20:12:00,54.9,39.8,29.46,SE,135,6.3,6.9,57,0.00,,,0.00,WUHU21623XXSP,2013-04-22 01:12:00,
2013-04-21 20:17:00,54.7,39.7,29.46,SE,135,6.9,6.9,57,0.00,,,0.00,WUHU21623XXSP,2013-04-22 01:17:00,
2013-04-21 20:22:00,54.3,39.3,29.46,SE,135,6.0,6.9,57,0.00,,,0.00,WUHU21623XXSP,2013-04-22 01:22:00,
2013-04-21 20:27:00,54.1,39.6,29.46,SE,135,4.7,6.0,58,0.00,,,0.00,WUHU21623XXSP,2013-04-22 01:27:00,
2013-04-21 20:32:00,54.0,39.5,29.46,SE,135,3.8,9.6,58,0.00,,,0.00,WUHU21623XXSP,2013-04-22 01:32:00,
2013-04-21 20:37:00,53.6,39.2,29.46,SE,135,6.7,9.6,58,0.00,,,0.00,WUHU21623XXSP,2013-04-22 01:37:00,
2013-04-21 20:42:00,53.4,39.0,29.46,SSE,157,3.6,7.6,58,0.00,,,0.00,WUHU21623XXSP,2013-04-22 01:42:00,
2013-04-21 20:47:00,53.2,39.3,29.47,South,180,9.4,9.4,59,0.00,,,0.00,WUHU21623XXSP,2013-04-22 01:47:00,
2013-04-21 20:52:00,52.9,38.9,29.47,SSE,157,10.1,10.1,59,0.00,,,0.00,WUHU21623XXSP,2013-04-22 01:52:00,
2013-04-21 20:57:00,52.9,39.4,29.47,SE,135,1.1,10.1,60,0.00,,,0.00,WUHU21623XXSP,2013-04-22 01:57:00,
2013-04-21 21:02:00,52.7,39.2,29.47,SE,135,4.9,7.8,60,0.00,,,0.00,WUHU21623XXSP,2013-04-22 02:02:00,
2013-04-21 21:07:00,52.3,38.8,29.47,SE,135,6.3,6.9,60,0.00,,,0.00,WUHU21623XXSP,2013-04-22 02:07:00,
2013-04-21 21:12:00,52.3,39.2,29.47,SSE,157,1.8,8.3,61,0.00,,,0.00,WUHU21623XXSP,2013-04-22 02:12:00,
2013-04-21 21:17:00,52.2,39.1,29.47,South,180,6.3,8.3,61,0.00,,,0.00,WUHU21623XXSP,2013-04-22 02:17:00,
2013-04-21 21:22:00,52.0,39.3,29.47,ESE,112,3.4,7.8,62,0.00,,,0.00,WUHU21623XXSP,2013-04-22 02:22:00,
2013-04-21 21:27:00,52.0,39.3,29.47,SSE,157,6.7,7.8,62,0.00,,,0.00,WUHU21623XXSP,2013-04-22 02:27:00,
2013-04-21 21:32:00,52.0,39.3,29.47,SSE,157,11.9,11.9,62,0.00,,,0.00,WUHU21623XXSP,2013-04-22 02:32:00,
2013-04-21 21:37:00,51.8,39.1,29.47,SE,135,9.2,11.9,62,0.00,,,0.00,WUHU21623XXSP,2013-04-22 02:37:00,
2013-04-21 21:42:00,51.6,39.4,29.47,SE,135,6.0,9.2,63,0.00,,,0.00,WUHU21623XXSP,2013-04-22 02:42:00,
2013-04-21 21:47:00,51.6,39.4,29.47,SSE,157,15.9,15.9,63,0.00,,,0.00,WUHU21623XXSP,2013-04-22 02:47:00,
2013-04-21 21:52:00,51.6,39.4,29.47,SSE,157,6.5,15.9,63,0.00,,,0.00,WUHU21623XXSP,2013-04-22 02:52:00,
2013-04-21 21:57:00,51.6,39.4,29.47,SE,135,6.7,13.0,63,0.00,,,0.00,WUHU21623XXSP,2013-04-22 02:57:00,
2013-04-21 22:02:00,51.6,39.4,29.47,ESE,112,8.1,8.1,63,0.00,,,0.00,WUHU21623XXSP,2013-04-22 03:02:00,
2013-04-21 22:07:00,51.4,39.2,29.46,SE,135,9.4,14.5,63,0.00,,,0.00,WUHU21623XXSP,2013-04-22 03:07:00,
2013-04-21 22:12:00,51.4,39.2,29.47,SSE,157,11.2,14.5,63,0.00,,,0.00,WUHU21623XXSP,2013-04-22 03:12:00,
2013-04-21 22:17:00,51.4,39.2,29.46,SSE,157,14.3,14.3,63,0.00,,,0.00,WUHU21623XXSP,2013-04-22 03:17:00,
2013-04-21 22:22:00,51.4,39.2,29.46,SSE,157,14.3,14.3,63,0.00,,,0.00,WUHU21623XXSP,2013-04-22 03:22:00,
2013-04-21 22:27:00,51.1,38.9,29.47,SE,135,7.4,14.3,63,0.00,,,0.00,WUHU21623XXSP,2013-04-22 03:27:00,
2013-04-21 22:32:00,51.1,38.9,29.47,SE,135,7.4,7.6,63,0.00,,,0.00,WUHU21623XXSP,2013-04-22 03:32:00,
2013-04-21 22:57:00,50.4,39.2,29.47,SSE,158,5.8,5.8,65,0.00,,,0.00,WUHU21623XXSP,2013-04-22 03:57:00,
2013-04-21 23:57:00,49.3,38.5,29.46,SSE,158,3.6,3.6,66,0.00,,,0.00,WUHU21623XXSP,2013-04-22 04:57:00,